Main page
METAR-TAF:

METAR-TAF

Airports :

Clayton Municipal Airpark

Clayton, New Mexico, United States

latitude: 36-26-54N, longitude: 103-09-11W, elevation: 4963 ft

Current weather observation

The report was made 1 hour and 2 minutes ago, at 01:55 UTC
Wind 6 mph from the West/Southwest
Temperature 41°F
Humidity 56%
Pressure 30.26 in. Hg
Visibility: 10 miles
Clear sky

METAR: KCAO 150155Z AUTO 25005KT 10SM CLR 05/M03 A3026 RMK AO2 SLP254 T00501033

Time: 19:57 (02:57 UTC)


TAF: missing

Weather observations and forecasts of more than 4000 airports (METAR and TAF reports).

The available stations are represented by yellow and red dots on the map.

Hover mouse over dot to see the name of the station.

Then click to see weather observations and forecasts.

To change the map : click on the green buttons with a black cross to zoom in, on the green button with a dash to zoom out, or on the green arrows for adjacent maps.


METAR-TAF: